Simultaneous Nadir Overpasses (SNOs) Predictions

Prediction of SNOs between GOES-16 and NOAA-19 Satellite Orbit:

Table of predicted SNOs for the next 14.0 days since TLE Epoch: 1/10/2025
Index Date Time (GOES-16) GOES-16 Lat,Lon NOAA-19 Lat,Lon Distance(km) Time Diff (sec)
1 01/11/2025 02:40:02 0.02, -75.16 -0.11, -75.68 59.44 80
2 01/12/2025 02:24:52 0.02, -75.16 0.63, -72.65 287.59 80
3 01/14/2025 14:43:36 -0.01, -75.21 0.43, -77.11 217.29 80
4 01/15/2025 14:33:44 -0.01, -75.21 -0.25, -74.06 130.64 80
5 01/16/2025 14:21:14 -0.00, -75.22 -0.98, -71.03 478.78 80
6 01/18/2025 02:52:46 0.00, -75.21 -0.75, -78.61 387.51 80
7 01/19/2025 02:40:14 -0.00, -75.22 -0.06, -75.57 38.88 80
8 01/20/2025 02:25:03 -0.00, -75.23 0.64, -72.52 310.04 80
9 01/22/2025 14:43:48 -0.00, -75.31 0.39, -76.99 192.06 80
10 01/23/2025 14:33:56 -0.00, -75.33 -0.31, -73.95 157.06 80
